Wind_Speed
9 8 8 8 8 7 8 8 9 9 8 7 7 7 7 6 6 6 7 7 7 7 6 7 7 8 9 10 11 11 11 11 11 11 11 11 11 12 13 13 13 13 13 13 13 13 14 14 13 11 10 10 10 11 11 11 12 13 14 14 15 15 15 15 15 15 16 16 16
9 9 9 8 8 7 7 8 8 8 8 8 8 7 7 7 6 6 7 7 7 7 6 6 8 8 9 10 11 11 12 12 12 11 11 11 11 12 13 13 13 13 13 13 13 13 14 14 13 12 10 10 11 11 12 11 12 13 14 15 15 15 15 15 15 15 16 16 16
10 9 9 8 8 7 7 7 7 7 7 8 8 7 7 7 7 6 6 6 7 7 7 7 8 9 10 11 11 12 12 12 12 12 11 11 12 12 13 13 13 13 13 13 13 14 14 14 13 11 11 11 11 12 12 12 13 14 14 15 14 14 14 14 15 15 15 15 15
10 9 9 9 9 8 8 7 7 7 7 7 7 7 7 7 7 7 6 6 7 7 7 8 9 10 11 11 11 11 12 12 12 12 12 12 12 13 13 13 13 13 13 13 14 14 15 14 12 11 11 11 12 12 12 13 14 14 14 14 14 14 14 15 15 15 15 15 15
9 9 9 9 9 9 8 8 7 7 7 7 7 6 7 7 7 7 6 6 7 7 8 9 10 10 11 11 11 11 12 12 12 12 12 12 12 13 13 13 13 13 13 14 14 14 15 14 12 11 11 11 11 12 12 13 14 15 14 15 14 14 14 15 15 15 15 16 16
9 9 9 9 9 9 8 8 8 7 8 8 7 6 7 7 7 7 6 6 7 8 9 10 10 11 11 12 12 12 12 12 12 12 12 12 12 13 13 13 14 14 14 14 14 14 14 14 12 11 11 11 12 12 13 14 14 15 15 15 15 15 15 15 15 16 16 17 17
8 8 9 9 9 8 8 8 8 8 8 8 7 7 7 8 8 7 7 7 8 9 10 10 11 11 12 12 12 12 12 12 11 12 12 12 12 13 14 14 14 14 14 14 14 14 14 13 12 11 11 12 12 13 14 14 15 15 16 16 16 15 15 16 16 16 17 18 19
8 8 8 8 8 8 8 8 8 7 7 8 8 8 8 8 9 8 8 8 9 10 11 11 12 12 12 12 12 12 12 12 12 12 12 12 13 13 14 14 14 14 14 14 14 14 14 13 12 12 12 13 13 14 15 15 16 16 17 17 17 16 16 16 16 17 18 19 20
8 8 8 8 8 8 8 8 8 8 7 8 8 8 9 9 9 9 9 9 10 10 11 11 12 12 12 12 12 12 12 12 12 12 12 12 13 13 14 14 14 14 14 14 14 14 14 13 12 12 13 13 14 15 16 16 17 17 17 17 17 17 17 17 18 18 19 19 20
7 7 7 7 7 7 7 8 8 8 8 8 8 9 9 10 10 10 10 10 11 10 10 11 12 12 12 11 12 12 12 12 12 12 12 12 13 13 14 14 15 15 15 15 14 14 14 13 13 14 15 15 16 16 17 17 17 18 18 17 18 18 19 19 19 19 20 20 20
6 6 6 6 6 7 7 6 7 7 8 8 8 9 9 10 10 10 11 11 10 10 10 12 12 12 12 12 12 12 11 12 12 12 12 12 13 13 14 14 15 15 15 15 15 14 14 14 15 15 16 16 16 17 17 18 18 18 18 18 18 19 20 20 20 20 20 20 21
6 6 6 6 6 6 6 5 6 7 8 8 8 9 9 9 10 11 11 11 10 10 11 12 12 12 12 12 12 12 12 12 12 12 12 12 13 13 14 14 15 15 15 15 15 15 15 15 16 16 17 17 17 17 17 18 19 19 19 19 19 20 20 21 21 21 21 21 21
6 6 6 6 7 6 6 5 6 7 8 8 8 9 9 9 10 11 11 10 11 11 11 12 12 12 12 12 12 12 12 12 11 12 12 12 13 13 14 14 15 15 15 15 15 15 15 16 16 17 18 18 18 18 18 19 19 20 20 20 21 21 21 22 22 22 22 22 22
5 6 6 6 6 6 6 5 6 7 7 8 8 9 9 9 10 11 11 11 11 11 11 11 11 11 11 12 12 12 12 11 11 12 12 12 13 14 14 15 15 15 16 16 16 16 16 16 17 17 18 18 19 19 19 19 19 20 20 21 21 22 22 23 23 23 23 23 23
5 6 6 6 6 6 6 5 6 6 7 7 8 9 9 9 10 11 11 11 11 11 11 11 11 11 11 11 11 12 11 11 11 12 12 13 13 14 15 15 15 16 16 16 16 16 16 17 17 18 18 19 20 20 20 20 20 20 21 21 22 23 23 23 24 24 24 24 24
5 6 6 6 6 6 6 6 6 6 6 7 8 9 9 9 10 11 11 11 11 11 11 11 11 11 11 11 11 12 11 11 12 12 13 13 14 15 15 16 16 16 17 17 17 17 17 17 17 18 19 19 20 20 21 21 21 21 21 22 22 23 24 24 24 24 24 24 24
5 6 6 6 6 6 6 6 6 6 6 7 8 9 9 10 10 11 11 12 11 11 11 12 11 11 11 11 12 12 11 11 12 12 13 14 15 15 16 16 16 17 17 18 18 18 18 18 18 18 19 20 20 21 21 21 22 22 22 23 23 24 24 24 24 24 24 25 25
5 5 5 6 6 6 6 6 6 6 7 7 8 9 10 10 10 11 11 12 12 12 12 12 12 11 11 11 12 12 12 12 12 13 14 14 15 15 16 16 17 17 17 18 18 18 18 19 19 19 20 20 20 21 21 22 22 23 23 24 24 24 24 24 24 24 24 25 25
4 5 5 5 5 6 6 6 6 6 7 8 8 9 10 10 11 11 11 12 12 12 12 12 12 12 12 12 12 12 12 12 13 13 14 15 15 16 16 17 17 17 18 18 18 18 18 19 19 20 20 21 21 22 22 23 23 23 24 24 24 24 25 25 24 24 24 25 25
4 4 4 5 5 5 6 6 6 7 7 8 9 9 10 10 11 11 11 12 12 12 12 12 12 12 12 13 13 12 12 13 13 14 14 15 15 16 16 17 17 18 18 18 18 18 18 19 20 21 21 22 22 23 23 23 24 24 24 24 24 25 25 25 25 25 25 24 25
4 4 4 4 5 5 6 6 7 7 8 8 9 10 10 11 11 11 12 12 13 13 12 12 12 13 13 13 13 13 13 13 13 14 14 15 15 16 16 17 17 18 17 17 17 18 18 19 20 21 22 22 23 23 23 24 24 25 25 25 25 25 25 25 25 25 25 24 24
4 4 4 5 5 5 6 6 7 8 8 9 10 10 11 11 11 12 12 13 13 12 12 12 12 13 13 13 13 13 13 14 14 14 14 15 15 16 16 17 17 17 17 17 17 18 19 20 21 21 22 23 23 24 24 24 25 25 25 25 25 26 26 25 25 25 24 24 24
4 4 5 5 6 6 6 7 8 8 9 10 10 11 11 11 12 13 13 13 12 12 12 12 12 13 13 13 13 13 14 14 14 14 14 15 16 16 16 17 17 17 17 16 17 18 19 21 21 22 22 23 24 24 25 25 25 25 26 26 26 26 26 25 24 24 24 24 24
4 4 5 5 6 7 7 8 8 9 10 10 11 11 12 12 13 13 13 12 12 12 13 12 12 13 13 13 13 13 13 14 14 15 15 15 16 16 17 17 16 16 16 16 17 18 20 21 22 23 23 23 24 24 25 25 25 25 26 26 26 26 26 25 24 24 24 24 24
4 5 5 6 6 7 8 8 9 10 10 11 11 12 12 12 13 13 13 12 12 13 13 13 13 13 12 12 12 13 13 14 14 15 16 16 16 17 17 17 17 16 16 16 18 20 21 22 22 23 24 24 25 25 25 25 25 25 25 25 26 26 25 25 24 24 23 24 24
5 5 6 6 7 7 8 9 10 10 11 12 12 12 12 13 13 13 13 12 13 13 13 13 12 12 12 12 12 13 13 14 14 15 16 16 17 17 17 17 16 16 16 17 19 21 22 23 24 24 24 25 25 26 26 25 25 25 25 25 25 24 24 24 24 24 24 24 24
6 6 7 7 8 8 9 10 10 11 12 12 12 13 13 13 13 12 12 12 13 13 12 12 12 12 12 12 12 13 14 14 15 15 16 16 17 17 17 17 16 16 17 19 21 22 23 24 24 25 25 25 25 26 26 25 25 25 24 24 24 23 23 23 24 24 25 25 25
6 7 7 8 8 8 9 10 11 11 12 12 13 13 13 13 12 12 12 12 13 13 12 11 11 12 12 12 13 14 14 15 15 16 16 17 17 17 17 18 17 18 18 20 22 22 23 24 25 25 26 25 25 25 25 25 25 24 24 23 22 22 23 23 23 24 25 25 26
7 8 8 8 8 9 9 10 11 12 12 13 13 13 13 13 12 12 12 12 13 12 12 11 12 12 12 13 14 14 15 15 16 16 17 17 17 17 18 18 19 19 20 21 22 22 23 24 25 26 26 26 25 25 24 24 23 23 23 22 22 22 22 23 24 24 25 25 26
8 8 8 8 9 9 10 11 12 12 13 13 13 13 13 12 12 12 12 12 12 12 12 12 12 13 13 14 14 15 15 16 16 16 17 17 17 18 19 19 19 20 20 20 21 22 24 25 26 26 26 26 26 25 24 23 23 23 23 22 22 22 23 24 24 25 25 25 26
8 9 9 9 9 9 10 11 12 12 13 13 13 13 12 12 12 12 12 12 13 13 13 13 13 14 14 14 15 15 16 16 17 17 17 17 18 19 19 20 20 20 20 20 21 23 24 25 26 26 26 26 26 25 24 23 23 23 22 22 22 23 24 24 24 25 25 26 26
9 9 9 9 9 10 11 12 12 13 13 13 12 12 12 12 12 12 13 13 13 13 13 13 14 14 15 15 15 16 16 17 17 17 17 18 18 19 20 20 20 20 20 20 22 23 25 25 26 26 26 27 26 25 24 23 23 22 22 22 23 23 24 24 24 25 25 26 26
9 9 9 9 10 11 12 12 13 13 13 13 12 12 12 13 13 13 13 13 13 13 13 13 14 15 15 15 16 16 16 17 17 18 18 19 19 20 20 20 20 20 20 21 22 24 25 25 26 26 26 27 26 25 24 23 22 22 22 22 23 23 24 24 25 25 25 26 26
8 9 9 10 11 11 12 13 13 13 13 13 12 12 13 13 13 14 13 13 13 13 13 13 14 14 15 15 16 16 17 17 17 18 19 19 19 20 20 20 20 20 21 22 23 24 25 25 25 26 26 27 25 24 23 22 22 22 22 23 23 24 24 24 25 25 25 25 25
9 9 10 11 11 12 12 13 13 13 13 13 13 13 13 13 14 14 14 14 14 14 14 14 14 15 15 15 16 16 17 18 18 18 19 19 20 20 21 20 21 21 22 22 23 24 24 25 25 26 26 26 24 23 22 23 23 23 23 24 24 24 24 24 25 25 25 25 25
9 10 11 12 12 12 12 13 13 13 13 13 13 14 14 14 14 14 14 14 14 14 14 15 15 15 16 16 16 16 17 18 19 19 19 19 20 21 21 21 22 22 22 23 23 23 24 24 25 25 25 25 23 22 22 22 22 23 23 24 24 24 24 24 24 24 24 25 25
11 11 12 12 12 12 13 13 13 14 14 14 14 14 14 15 14 14 14 14 14 14 15 15 16 16 16 16 17 17 17 18 19 20 20 20 20 21 22 22 22 22 22 22 22 23 23 24 24 25 25 24 23 23 22 22 22 22 23 24 24 24 24 24 24 24 24 24 24
12 12 12 12 13 13 13 14 14 14 14 14 15 15 15 14 14 14 14 14 14 15 16 16 16 16 17 17 17 18 18 18 19 19 20 20 20 20 22 23 23 23 22 22 22 22 23 23 24 24 24 24 23 23 22 22 22 22 23 23 24 24 24 24 24 24 25 24 24
12 12 12 12 13 13 14 14 14 14 15 15 15 15 15 14 14 14 14 14 14 15 16 16 17 17 17 17 18 18 19 18 19 19 20 20 20 20 21 23 23 23 22 22 22 22 22 23 23 23 23 23 23 22 22 22 22 22 23 23 24 24 24 24 25 25 25 25 24
12 12 12 13 13 13 14 14 14 15 15 15 15 15 15 14 14 14 15 15 15 15 16 16 17 17 17 18 18 19 19 19 19 19 19 20 20 21 21 22 23 22 22 21 21 22 22 22 22 23 23 23 22 21 21 21 22 22 23 23 24 24 25 25 25 24 24 24 24
12 12 13 13 14 14 14 14 15 15 15 15 15 15 15 15 14 15 15 15 15 15 15 16 17 17 18 18 18 19 20 20 20 19 19 20 21 21 21 21 22 22 21 20 21 21 22 22 22 22 22 22 22 21 21 21 22 22 23 24 24 25 26 26 24 23 23 24 25
Wind_Direction
75 73 72 71 69 66 63 59 57 54 51 46 39 35 32 31 30 28 26 25 22 19 14 11 9 7 7 7 8 7 5 2 360 358 357 356 355 355 354 353 353 351 349 348 347 346 345 344 341 336 331 328 327 327 327 326 326 325 324 323 321 319 316 314 312 312 312 311 310
76 75 73 71 68 64 60 55 52 49 48 46 44 40 37 34 33 29 27 25 22 19 14 9 8 7 6 6 6 5 2 360 359 357 355 354 354 353 353 351 350 349 348 347 346 345 343 342 338 334 329 327 326 326 325 325 325 324 323 322 320 318 315 313 312 311 311 310 310
76 74 71 68 65 62 59 56 51 48 45 45 45 43 40 38 35 32 28 24 21 18 14 9 7 6 6 5 4 3 0 358 358 356 354 352 352 351 351 350 348 347 346 346 345 343 342 340 335 331 327 326 325 325 324 324 324 323 322 320 318 316 314 312 311 310 310 309 309
76 73 71 69 67 64 62 58 54 49 46 46 45 43 40 39 37 34 28 23 19 17 13 9 7 6 6 4 2 360 358 357 357 355 353 351 350 349 349 348 346 345 344 344 342 341 340 338 333 328 325 323 323 322 322 322 323 322 320 318 316 314 312 310 309 309 308 307 306
74 71 69 67 64 61 59 58 56 51 49 48 45 41 37 37 36 32 26 21 17 13 11 8 7 6 4 2 0 358 357 355 355 353 351 349 348 347 347 346 344 343 342 341 340 339 338 336 330 325 322 322 321 320 319 320 321 320 318 317 314 311 310 308 308 307 306 305 304
74 69 66 63 61 58 57 57 56 54 51 50 47 42 37 36 34 30 24 18 12 9 8 9 7 5 2 1 359 357 356 355 353 351 348 346 345 344 344 343 342 341 340 339 338 337 336 333 328 324 321 320 318 318 319 320 319 317 316 314 312 310 308 307 306 305 304 302 302
76 70 65 61 58 57 56 56 56 55 52 49 47 43 38 36 34 30 24 16 10 8 7 8 6 5 3 1 359 356 355 353 350 348 346 344 342 341 341 341 340 339 338 337 336 335 334 331 326 323 321 320 318 318 318 318 317 315 313 311 310 308 306 304 304 304 302 301 301
74 68 63 58 55 54 55 57 57 55 50 47 44 39 35 31 30 27 21 14 10 8 7 5 5 4 2 359 357 355 353 351 348 346 344 342 340 339 339 339 338 337 336 336 334 333 331 329 324 322 321 319 318 318 317 316 315 312 310 309 307 306 304 303 301 301 300 299 300
73 65 59 55 52 51 53 55 57 55 51 44 40 34 30 26 24 21 16 11 9 6 4 3 2 2 360 357 355 353 351 349 346 343 341 340 339 338 337 337 337 335 334 334 332 331 329 326 323 321 320 318 316 314 314 314 312 310 308 307 306 305 303 301 300 300 299 299 299
76 68 61 57 53 50 51 52 51 50 47 41 36 30 26 22 19 15 11 7 6 4 0 359 1 1 359 355 354 351 348 345 343 341 339 337 336 336 336 335 334 334 332 331 330 329 327 324 321 320 319 316 314 313 312 312 311 309 307 305 304 303 301 301 300 300 300 299 299
78 70 64 60 54 52 52 50 46 43 41 37 32 27 23 18 14 10 6 5 4 360 357 358 0 0 358 354 351 348 345 342 340 337 335 334 333 334 333 332 332 331 330 329 328 327 325 323 320 318 316 315 314 312 311 312 310 307 305 303 302 301 301 301 301 301 300 300 299
74 66 60 55 52 52 52 49 42 38 36 32 28 24 20 14 9 5 4 3 360 356 354 356 358 358 355 351 348 345 342 340 337 334 332 331 331 331 331 330 329 329 328 327 326 325 323 321 318 315 315 314 313 312 311 310 308 307 305 303 302 302 302 302 302 302 301 300 299
68 60 54 50 49 49 49 45 39 33 30 26 23 20 16 9 4 2 1 359 356 355 354 354 354 353 351 347 345 343 340 337 334 332 330 329 329 329 329 329 328 327 327 326 325 323 320 318 316 314 313 313 312 311 309 308 307 306 305 304 304 303 303 303 303 302 302 301 299
61 56 51 48 46 46 45 41 35 30 25 21 17 14 10 5 0 358 357 356 355 354 353 351 350 348 346 344 342 339 336 333 330 328 327 327 328 328 328 327 327 326 325 324 323 321 319 316 315 313 312 311 310 309 308 307 306 304 304 304 303 303 302 302 303 302 302 301 300
56 50 47 45 45 44 42 38 32 26 20 15 10 8 5 1 357 355 355 355 355 353 350 347 345 344 343 341 338 335 334 331 328 327 327 327 327 327 327 326 326 325 324 322 321 319 317 316 314 313 312 310 309 308 308 306 305 303 303 302 302 302 302 302 302 302 302 301 301
53 46 44 44 44 43 39 35 28 22 15 10 5 3 1 358 354 353 353 354 354 351 348 345 343 341 339 337 336 334 332 330 328 327 327 327 327 327 326 325 325 324 323 322 320 319 317 316 314 313 312 310 309 308 307 306 305 303 302 301 301 301 301 301 301 301 301 301 301
49 44 42 43 43 41 36 30 24 17 11 5 2 359 357 354 352 352 352 352 351 348 345 344 342 339 336 334 334 334 332 329 328 327 327 326 326 325 324 324 323 322 322 321 319 318 317 316 315 314 312 310 309 307 306 305 305 304 302 302 301 300 300 300 300 301 301 301 301
44 41 40 42 40 36 30 24 17 11 5 1 359 356 354 352 351 350 350 350 349 346 343 342 341 338 334 331 332 331 330 328 327 326 325 324 324 323 322 322 321 321 320 319 318 317 317 317 316 315 313 311 309 308 306 306 304 304 303 302 301 300 300 300 300 300 301 301 301
39 38 38 38 35 30 22 14 7 3 359 357 355 353 351 350 349 349 348 347 346 344 342 339 337 334 332 330 330 330 328 326 325 324 323 323 322 322 321 321 320 320 320 319 318 317 317 317 316 315 314 312 310 309 307 306 305 304 303 302 301 300 300 300 301 301 301 301 302
32 32 31 30 27 21 14 5 359 356 354 353 352 351 350 349 348 347 345 344 343 343 342 338 334 331 329 329 329 328 326 325 324 322 322 321 321 321 320 320 320 320 319 318 318 317 317 317 317 316 314 312 310 309 308 307 305 304 303 302 301 301 301 301 301 302 302 302 302
23 22 21 19 17 13 6 357 353 351 350 350 349 350 349 347 346 344 343 342 343 342 339 334 330 327 327 328 327 326 324 323 322 321 320 320 320 320 320 320 320 320 319 318 318 318 318 318 317 316 314 312 311 309 308 307 306 305 304 303 302 302 302 302 303 303 303 303 304
10 9 9 9 7 3 357 351 348 347 347 347 348 348 347 345 343 342 342 342 341 338 333 329 325 324 325 325 324 323 321 320 319 319 319 319 319 319 320 321 320 320 319 318 318 319 319 318 318 316 314 312 311 309 308 307 306 305 304 303 303 303 303 304 304 304 304 305 305
358 1 1 0 358 354 351 347 345 345 345 346 346 346 344 342 340 341 341 340 336 332 329 325 323 322 323 322 321 319 317 317 317 317 317 318 319 320 321 321 321 319 318 318 319 319 320 319 317 316 314 313 311 310 309 308 306 306 305 304 304 304 305 305 305 305 306 306 306
352 353 354 353 351 349 346 343 343 343 344 345 345 343 341 340 339 339 338 336 332 329 326 323 321 321 321 319 316 315 314 315 315 316 318 319 320 322 322 322 321 319 318 317 317 318 318 317 317 316 314 313 311 310 309 308 307 306 305 305 305 305 306 306 306 306 307 307 307
346 348 349 349 347 346 342 341 341 342 343 343 342 341 340 338 338 337 335 332 328 326 323 321 319 318 317 315 313 312 313 314 315 316 318 320 321 323 323 322 321 319 317 315 315 316 316 315 314 314 314 312 312 310 309 307 306 306 305 305 306 306 306 306 307 307 308 308 308
342 344 345 345 344 343 340 339 340 342 342 341 340 339 338 336 335 334 331 327 324 323 321 319 316 315 313 312 311 312 313 315 316 317 318 320 321 323 322 321 320 317 315 314 314 315 315 314 313 313 313 312 312 311 310 308 307 306 305 305 305 306 306 307 308 309 309 309 309
340 340 341 342 343 341 339 338 340 340 340 339 338 337 336 335 333 331 327 323 321 321 320 317 315 314 312 311 311 312 314 315 317 318 319 319 320 320 320 320 318 315 314 313 314 314 314 314 314 314 313 313 312 311 310 308 307 306 306 306 306 306 307 308 309 309 310 310 310
336 336 338 341 341 338 337 338 339 338 337 336 336 335 334 333 330 326 322 319 320 320 318 316 314 314 313 312 312 313 315 316 317 318 319 319 319 318 318 317 316 314 312 313 313 313 314 314 314 314 314 314 313 311 309 308 307 307 307 306 306 307 307 308 309 310 310 310 310
332 334 337 338 336 335 335 336 336 336 335 335 334 334 333 331 326 322 319 318 319 318 316 314 314 314 313 312 313 314 316 317 318 319 318 318 317 316 316 315 314 312 312 312 312 313 314 314 314 314 314 315 314 312 310 308 308 307 307 306 307 308 308 309 310 310 309 309 309
331 334 335 334 333 332 332 333 334 334 334 334 333 332 330 327 323 319 318 317 316 315 314 313 313 312 311 312 313 315 316 317 318 318 317 316 315 315 314 314 313 312 311 311 312 313 314 314 314 314 315 316 315 313 311 308 307 307 307 307 307 308 309 309 309 309 308 308 308
332 334 334 332 330 328 330 331 333 334 333 333 331 329 326 322 320 318 317 316 315 314 314 312 310 309 310 312 314 315 316 317 317 317 316 315 314 313 313 313 312 311 310 311 312 313 314 314 315 315 316 317 316 314 311 309 308 307 307 307 308 309 309 309 308 307 307 307 307
334 334 332 329 327 327 329 331 332 332 331 330 328 325 322 320 318 317 318 317 316 314 313 312 311 311 313 314 315 315 316 316 315 315 314 313 312 312 312 312 311 311 311 312 313 314 314 315 315 315 316 317 317 314 311 309 308 308 307 308 308 309 309 308 307 306 306 306 306
334 331 328 326 325 327 329 331 331 331 329 327 325 322 320 319 318 319 319 318 316 314 312 312 312 313 314 315 315 315 315 314 313 313 313 312 312 311 311 311 311 311 312 312 313 314 315 315 316 316 317 318 317 315 312 311 310 309 309 309 309 308 307 307 306 305 305 305 304
331 328 326 325 325 327 328 329 329 328 327 325 322 320 319 319 318 318 318 317 315 314 312 311 311 312 312 313 313 313 313 312 312 311 312 312 311 311 310 310 311 311 312 312 313 314 315 316 316 317 318 318 317 315 314 313 312 311 310 310 309 308 307 306 306 305 304 304 303
329 327 326 325 325 326 326 327 326 326 324 321 320 319 319 319 318 317 316 315 315 313 311 311 311 311 312 312 312 311 311 311 310 310 311 311 311 310 310 309 310 311 312 313 314 315 315 316 317 318 319 319 317 316 315 314 313 312 311 310 309 308 307 306 306 305 304 303 302
329 327 326 325 324 324 324 324 324 323 321 320 319 319 319 319 318 317 316 316 314 311 310 311 312 312 312 312 312 311 310 310 309 309 310 310 310 310 310 309 310 311 312 313 314 315 315 316 317 318 319 319 317 316 316 315 314 313 312 311 310 309 308 307 306 305 304 303 303
328 326 325 323 322 322 321 321 321 320 319 318 318 319 318 318 317 317 317 316 313 312 312 312 313 313 312 312 311 310 309 309 308 309 309 309 309 309 309 310 310 311 312 313 314 315 315 316 317 318 319 319 318 318 317 316 314 313 312 311 310 309 309 308 307 306 305 305 305
326 324 323 321 319 319 319 319 318 317 316 317 318 318 318 317 316 315 315 314 313 312 312 312 312 312 311 311 309 308 308 308 307 307 308 308 308 309 309 309 310 311 312 312 313 314 315 316 317 319 319 319 319 318 317 316 315 313 312 311 310 309 309 308 308 307 307 306 306
324 322 320 318 317 316 317 316 316 315 315 316 317 317 317 316 314 313 312 312 311 311 311 311 310 310 310 310 309 308 308 307 306 307 307 307 308 308 308 308 308 309 310 311 312 314 315 316 317 319 319 319 319 318 317 316 314 313 312 311 311 310 310 309 309 309 309 308 307
321 319 317 315 315 315 314 314 314 314 315 315 315 315 314 313 311 311 312 312 311 310 309 309 308 308 309 310 308 307 307 307 306 306 306 307 307 308 307 307 307 308 309 311 312 313 315 316 317 319 320 320 320 319 317 315 314 313 312 312 312 311 311 311 310 310 309 309 308
319 317 315 313 313 313 313 313 313 314 315 314 313 312 312 310 309 310 311 311 311 310 309 308 308 308 308 308 307 306 307 307 307 307 307 308 308 308 308 308 308 308 309 310 312 313 315 316 317 319 320 320 320 319 318 316 314 313 313 313 312 312 312 312 311 310 310 311 310
Height
794 794 794 794 794 794 794 794 793 793 793 793 793 793 792 792 791 791 790 790 790 789 789 788 788 787 786 785 784 784 783 782 781 781 780 779 778 777 776 775 774 774 773 771 770 769 768 767 766 765 764 763 762 761 760 759 758 757 756 754 753 752 751 749 748 747 745 744 743
794 794 794 794 794 794 794 794 794 793 793 793 793 793 792 792 792 791 791 790 790 789 789 788 787 787 786 785 784 783 783 782 781 780 779 779 778 777 776 775 774 773 772 771 770 769 768 766 765 764 763 762 761 760 759 758 757 756 755 753 752 751 750 748 747 746 744 743 742
794 794 794 794 794 794 794 794 794 794 793 793 793 792 792 792 791 791 791 790 790 789 789 788 787 786 785 784 784 783 782 781 781 780 779 778 777 777 776 774 774 773 772 771 769 768 767 766 765 764 763 762 761 759 758 757 756 755 754 753 751 750 749 747 746 745 743 742 741
794 794 794 794 794 794 794 794 794 794 793 793 793 792 792 792 791 791 791 790 790 789 788 788 787 786 785 784 784 783 782 781 780 779 779 778 777 776 775 774 773 772 771 770 769 768 767 765 764 763 762 761 760 759 758 757 755 754 753 752 750 749 748 746 745 744 743 741 740
794 794 794 794 794 794 794 794 794 794 793 793 793 792 792 791 791 791 790 790 790 789 788 787 786 785 785 784 783 783 782 781 780 779 778 778 777 776 775 774 773 772 771 769 768 767 766 765 764 763 762 760 759 758 757 756 755 753 752 751 750 748 747 745 744 743 742 740 739
794 794 794 794 794 794 794 794 794 794 793 793 793 792 792 791 791 791 790 790 789 789 788 787 786 785 784 784 783 782 781 781 780 779 778 777 776 775 774 773 772 771 770 769 768 766 765 764 763 762 761 760 758 757 756 755 754 753 751 750 749 748 746 744 743 742 740 739 738
794 794 794 794 794 794 794 794 794 793 793 793 793 792 792 791 791 791 790 790 789 789 788 787 786 785 784 784 783 782 781 780 779 779 778 777 776 775 774 773 771 770 769 768 767 766 765 763 763 761 760 759 758 756 755 754 753 752 750 749 748 746 745 743 742 741 739 738 736
794 794 794 794 794 794 794 794 794 793 793 793 793 792 792 791 791 790 790 789 789 788 787 786 786 785 784 783 782 782 781 780 779 778 777 776 775 774 773 772 771 770 768 768 766 765 764 763 762 761 759 758 757 756 754 753 752 751 749 748 746 745 744 743 741 739 738 736 735
794 794 794 794 794 794 794 794 793 793 793 793 792 792 792 791 790 790 789 789 788 788 787 786 785 784 784 783 782 781 780 779 779 778 777 776 775 774 772 771 770 769 768 767 766 764 763 762 761 760 759 758 756 754 753 752 751 749 748 747 745 743 742 741 740 738 736 735 733
794 794 794 794 794 794 794 794 793 793 793 792 792 792 791 790 790 790 789 789 788 787 787 786 785 784 784 783 782 781 780 779 778 777 776 775 774 773 772 771 769 768 767 766 765 764 763 762 760 759 758 757 755 753 752 751 750 748 747 745 744 742 741 739 738 737 735 733 732
794 794 794 794 794 794 794 793 793 793 792 792 791 791 791 790 790 789 789 788 788 787 786 785 784 784 783 782 781 780 779 779 778 777 776 774 774 772 771 770 769 768 767 765 764 763 762 761 759 758 757 755 754 752 751 750 748 747 745 744 742 741 739 738 736 735 733 732 730
794 794 794 794 794 794 793 793 793 792 792 791 791 790 790 790 789 789 788 788 788 787 786 785 784 783 783 782 781 780 779 778 777 776 775 774 773 772 771 769 768 767 766 764 763 762 761 759 758 756 755 754 753 751 750 748 747 745 744 742 741 739 738 736 734 733 732 730 728
794 794 794 794 793 793 793 793 792 792 791 791 790 790 790 789 789 788 788 788 787 786 785 784 784 783 782 781 780 779 779 778 777 775 774 774 772 771 770 769 768 766 765 763 762 761 760 758 757 755 754 753 751 750 748 747 745 744 742 741 739 738 736 734 733 731 730 728 727
794 794 794 794 793 793 793 793 792 792 791 791 790 790 789 789 788 788 788 787 786 786 785 784 783 783 782 781 780 779 778 777 776 775 774 773 772 770 769 768 767 765 764 763 761 760 759 757 756 754 753 751 750 748 747 746 744 743 741 739 738 736 734 733 731 730 728 727 725
794 794 794 793 793 793 793 792 792 791 791 790 790 789 789 789 788 787 787 786 786 785 784 784 783 782 781 780 779 778 777 776 775 774 773 772 771 770 768 767 766 764 763 762 760 759 758 756 755 753 752 750 748 747 745 744 743 741 739 738 736 734 733 731 729 728 726 725 723
794 794 793 793 793 793 792 792 792 791 791 790 790 789 789 789 788 787 786 786 785 785 784 783 782 781 780 780 779 778 777 776 774 774 772 771 770 768 767 766 765 763 762 760 759 758 756 755 753 752 750 748 747 745 744 743 741 739 738 736 734 733 731 729 728 726 725 723 721
794 793 793 793 792 792 792 792 791 791 790 790 789 789 788 788 787 787 786 785 785 784 784 783 782 781 780 779 778 777 776 775 774 773 771 770 769 768 766 765 763 762 761 759 758 756 755 753 752 751 749 748 746 744 743 741 739 738 736 734 733 731 729 728 726 724 723 721 720
793 793 792 792 792 792 791 791 791 790 790 789 789 788 788 787 787 786 785 785 784 784 783 782 781 780 779 778 777 776 775 774 773 772 770 769 768 767 765 764 762 761 759 758 757 755 753 752 751 749 748 746 744 743 741 739 738 736 734 733 731 729 728 726 724 723 721 719 718
793 792 792 792 791 791 791 791 790 790 789 789 788 788 787 787 786 785 785 784 784 783 782 781 780 779 779 778 776 775 774 773 772 771 769 768 767 765 764 763 761 760 758 757 755 754 752 751 749 748 746 745 743 741 740 738 736 734 733 731 729 728 726 724 723 721 720 718 716
792 792 791 791 791 791 790 790 790 789 789 788 787 787 786 786 785 785 784 784 783 782 781 780 779 779 778 776 775 774 773 772 771 769 768 767 766 764 763 761 760 758 757 755 754 753 751 750 748 747 745 743 742 740 738 736 734 733 731 729 728 726 724 723 721 719 718 716 715
792 791 791 791 790 790 790 790 790 789 788 787 787 786 786 785 785 784 784 783 782 781 780 779 779 778 777 775 774 773 772 771 770 768 767 766 764 763 762 760 758 757 756 754 753 752 750 748 747 745 743 742 740 738 737 734 733 731 729 728 726 724 722 721 719 718 716 715 713
791 791 790 790 790 790 790 790 789 789 788 787 786 785 785 784 784 784 783 782 781 780 779 779 778 777 776 774 773 772 771 770 768 767 766 765 763 762 760 759 757 756 754 753 752 750 749 747 746 744 743 740 738 737 735 733 731 729 727 725 724 722 720 719 717 716 714 713 711
791 790 790 790 790 789 789 789 789 788 787 786 785 785 784 784 783 783 782 781 780 780 779 778 777 776 774 774 772 771 770 768 768 766 765 763 762 761 759 758 756 755 753 752 751 749 748 746 744 743 741 739 737 735 733 732 730 728 725 723 722 720 718 717 715 714 712 711 710
790 790 790 789 789 789 789 789 788 788 787 786 785 784 784 783 783 782 781 780 780 779 778 777 776 774 774 772 771 770 769 768 766 765 763 762 761 759 758 756 755 754 753 751 750 748 747 745 743 742 740 738 736 734 732 730 728 726 724 722 720 718 716 715 713 712 711 709 708
790 790 789 789 789 789 789 788 788 787 786 785 784 784 783 783 782 781 780 780 779 778 777 776 775 774 772 771 770 769 768 767 765 763 762 761 759 758 757 755 754 753 751 750 748 747 746 745 743 741 739 737 735 733 730 728 727 725 723 720 718 716 714 713 711 710 709 708 706
790 790 789 789 789 789 788 788 787 786 785 784 784 783 783 782 781 780 780 779 778 777 776 775 774 773 771 770 769 768 767 765 764 762 761 759 758 756 755 754 753 751 750 748 747 746 745 743 742 741 738 736 734 732 729 727 725 723 721 719 717 715 713 711 709 708 707 706 704
790 790 789 789 789 788 788 787 786 785 785 784 783 783 782 781 780 780 779 778 777 776 775 774 773 772 770 769 768 767 765 764 763 761 759 758 756 755 754 753 751 750 748 747 746 744 743 742 740 739 738 735 733 731 728 726 723 721 720 718 716 714 712 710 708 707 705 704 703
790 789 789 789 788 788 787 786 786 785 784 784 783 782 781 780 780 779 778 777 776 775 774 773 772 770 769 768 767 765 764 763 761 759 758 757 755 754 753 751 750 748 747 746 744 743 742 740 738 737 736 734 732 729 727 724 722 720 718 716 714 712 710 709 707 706 704 702 701
789 789 789 788 788 787 787 786 785 784 784 783 782 781 780 780 779 778 777 776 775 774 773 772 771 769 768 767 765 764 763 761 760 758 757 755 754 753 751 750 748 747 746 744 743 741 740 738 737 735 734 733 731 728 726 723 721 718 716 714 713 711 709 708 706 705 703 701 700
789 789 788 788 787 787 786 785 784 784 783 782 781 780 780 779 778 777 776 775 774 773 772 771 769 768 767 766 764 763 761 760 758 757 755 754 752 751 750 748 747 745 744 743 741 740 738 737 735 734 732 731 729 727 724 722 720 718 715 713 711 710 708 707 705 704 702 700 699
789 788 788 787 787 786 785 785 784 783 782 781 780 780 779 778 777 776 775 774 773 772 771 770 768 767 766 764 763 761 760 758 757 755 754 753 751 750 748 747 746 744 743 741 740 738 737 735 734 732 730 729 727 725 723 721 718 716 714 712 710 709 707 706 704 703 701 699 698
788 788 787 787 786 786 785 784 783 782 781 781 780 779 778 777 776 775 774 773 772 771 769 768 767 766 764 763 762 760 758 757 755 754 753 751 750 748 747 745 744 743 741 740 738 737 735 734 732 730 729 727 725 723 721 719 717 715 713 711 709 708 706 705 703 701 700 698 697
788 787 787 786 786 785 784 783 783 782 781 780 779 778 777 776 775 774 773 772 771 770 768 767 766 764 763 761 760 758 757 756 754 753 751 750 748 747 745 744 743 741 740 738 737 735 734 732 730 729 727 725 724 722 719 717 715 713 711 709 708 707 705 703 702 700 698 697 695
787 787 786 786 785 784 784 783 782 781 780 779 778 777 776 775 774 773 772 771 770 768 767 766 765 763 762 760 759 757 755 754 753 751 750 748 747 746 744 743 741 739 738 737 735 734 732 731 729 727 726 724 722 720 718 716 713 712 710 708 707 705 703 702 700 699 697 695 694
787 786 786 785 784 784 783 782 781 780 779 778 777 776 775 774 773 772 771 769 768 767 766 765 763 762 760 759 758 756 754 753 751 750 749 747 746 744 743 741 739 738 737 735 734 733 731 729 728 726 724 723 721 718 716 714 712 710 708 707 705 703 702 700 699 697 696 694 692
786 786 785 784 784 783 782 781 780 779 779 777 776 775 774 773 772 771 770 768 767 766 765 763 762 760 759 758 756 755 753 752 750 748 747 746 744 743 741 739 738 736 735 734 733 731 729 728 726 725 723 721 719 717 715 713 711 709 707 705 703 702 700 698 697 695 694 692 691
786 785 784 784 783 782 781 781 779 779 778 777 775 774 773 772 771 770 768 768 766 765 763 762 760 759 758 756 755 753 752 750 749 747 746 744 743 741 739 737 736 735 733 732 731 729 728 727 725 724 722 720 718 716 714 712 710 708 706 704 702 700 698 697 695 693 692 690 689
785 784 784 783 782 782 781 780 779 778 777 776 774 774 772 771 770 769 768 767 765 763 762 760 759 758 756 755 753 752 750 749 748 746 744 743 742 740 738 736 734 733 732 731 729 728 727 726 724 723 721 719 717 715 713 711 709 707 705 703 701 699 697 695 693 692 690 689 687
784 784 783 783 782 781 780 779 778 777 776 775 774 773 771 770 769 768 767 765 764 763 761 759 758 756 755 753 752 750 749 748 746 745 743 741 740 738 737 735 733 731 730 729 728 727 726 724 723 722 720 718 716 714 712 710 708 706 704 702 699 697 695 694 692 690 688 687 686
784 783 783 782 781 780 779 778 777 776 775 774 773 772 770 769 768 767 765 764 763 761 759 758 756 755 753 752 750 749 747 746 745 743 742 740 738 737 735 733 731 730 729 728 727 725 724 723 722 721 719 718 716 714 712 709 707 705 703 701 698 696 693 692 691 689 687 685 684
783 782 782 781 780 779 779 778 776 775 774 773 772 771 770 768 767 766 764 763 761 760 758 757 755 753 752 751 749 748 746 744 743 742 740 738 737 735 734 732 730 728 727 727 725 724 723 722 721 719 718 717 715 713 711 709 707 704 702 699 697 695 693 690 689 688 686 684 682